Location: Bald Mountain
(36.7661°N, 119.2037°W)
Time: 00:42:08
(UTC+00:00)

Daily predictions for brighter satellites

Satellite Brightness Start Highest point End
(mag) Time Altitude Azimuth Time Altitude Azimuth Time Altitude Azimuth
Cosmos 2263 Rocket 2.1 02:15:26 10° SSW 02:20:58 76° ESE 02:26:33 10° NNE
DELTA 2 R/B (1) 3.7 02:16:03 10° WNW 02:21:36 71° N 02:27:09 10° E
Cosmos 990 Rocket 4.0 02:16:31 10° SSW 02:21:39 87° ESE 02:26:49 10° NNE
Cosmos 1378 3.4 02:18:20 10° N 02:22:02 73° W 02:25:43 10° S
NOSS 2-2 (E) 3.2 02:18:58 10° SSW 02:22:23 49° ESE 02:25:53 10° NE
Meteor 2-9 Rocket 4.4 02:19:10 10° S 02:24:53 57° E 02:30:34 10° NNE
CZ-2C R/B 3.5 02:21:43 10° SE 02:26:31 41° ENE 02:31:36 10° N
Cosmos 1844 Rocket 4.1 02:25:30 10° SE 02:28:34 15° E 02:31:40 10° ENE
Cosmos 923 Rocket 4.0 02:24:03 10° NNW 02:29:17 88° ENE 02:34:29 10° SSE
USA 116 3.7 02:26:23 10° NNE 02:29:52 55° E 02:33:46 10° S
NOSS 2-2 (D) 3.3 02:27:29 10° SSW 02:30:54 46° ESE 02:34:21 10° NE
YAOGAN 1 2.6 02:27:09 10° SSE 02:31:23 59° ENE 02:35:39 10° N
Cosmos 2227 4.4 02:26:04 10° SSW 02:31:49 81° WNW 02:37:34 10° NNE
GP-B 3.3 02:30:18 10° N 02:34:45 76° W 02:39:10 10° S
ATLAS 5 CENTAUR R/B 3.1 02:32:54 10° NNW 02:36:13 44° ENE 02:46:14 10° SE
Okean 2 3.5 02:33:30 10° N 02:37:37 56° E 02:41:41 10° SSE
Cosmos 1943 3.5 02:36:24 10° N 02:41:52 47° ENE 02:47:18 10° SE
Cosmos 1975 3.1 02:41:36 10° SSW 02:45:39 74° W 02:49:44 10° N
Cosmos 1464 Rocket 4.4 02:40:36 10° SSE 02:46:09 38° E 02:51:44 10° NNE
CZ-4 R/B 1.8 02:43:44 10° S 02:47:56 70° W 02:52:08 10° NNW
CSL-04 Debris 4.1 02:44:08 10° SSE 02:49:28 68° ENE 02:54:49 10° N
Cosmos 1898 Rocket 4.3 02:44:53 10° SSW 02:49:56 55° WNW 02:55:02 10° N
Tsikada Rocket 4.5 02:43:56 10° NNW 02:50:01 66° W 02:56:06 10° S
Cosmos 1782 Rocket 3.6 02:47:15 10° S 02:51:38 84° W 02:56:05 10° N
CZ-2C R/B 1.0 02:50:50 10° WSW 02:54:23 58° S 02:56:26 21° E
Meteor 1-21 4.1 02:50:10 10° N 02:55:45 70° E 03:01:18 10° SSE
CSL-04 Rocket 3.6 02:53:21 10° SSE 02:58:43 78° ENE 03:04:12 10° N
Cosmos 1867 4.5 02:54:13 10° N 02:59:05 32° NE 03:02:04 19° E
Cosmos 1025 Rocket 4.2 02:55:46 10° NNE 02:59:20 24° ENE 03:00:46 20° ESE
Cosmos 1603 3.6 02:56:02 10° NNW 03:01:43 84° ENE 03:07:20 10° SSE
Milstar 3 Cent rocket 3.6 02:58:14 10° SW 03:03:35 22° S 03:06:06 16° SE
Cosmos 1842 3.6 03:02:16 10° NNW 03:06:07 65° W 03:09:57 10° S
Cosmos 372 Rocket 3.9 03:02:10 10° S 03:07:22 68° ESE 03:12:35 10° NNE
Cosmos 2150 Rocket 4.3 03:07:27 10° S 03:12:29 46° ESE 03:17:39 10° NNE
Cosmos 1891 Rocket 4.4 03:07:34 10° S 03:13:42 71° E 03:19:45 10° NNE
NOSS 2-2 (C) 4.1 03:12:05 10° SW 03:15:28 45° NW 03:19:01 10° NNE
SJ-6B 3.6 03:19:56 29° ENE 03:19:56 29° ENE 03:22:58 10° N
Cosmos 1707 2.7 03:16:13 10° N 03:20:00 58° E 03:21:45 29° SSE
Cosmos 1975 Rocket 3.3 03:16:14 10° NNW 03:20:32 68° W 03:24:48 10° S
Cosmos 2084 Rocket 3.5 03:16:11 10° NNW 03:20:41 87° SW 03:23:22 24° SSE
Cosmos 1125 Rocket 4.0 03:17:41 10° SSE 03:22:28 36° E 03:27:18 10° NE
MOS 1 Rocket 3.5 03:18:52 10° N 03:23:15 63° WNW 03:27:28 10° SSW
ISS -2.2 03:20:36 10° WSW 03:23:41 34° NW 03:26:13 14° NNE
Resurs 01 Rocket 3.8 03:27:09 12° NE 03:27:09 12° NE 03:27:49 10° NE
USA 234 3.1 03:33:49 10° NE 03:40:23 80° SE 03:46:56 10° SW
H-2A R/B 2.9 03:35:57 10° S 03:40:42 48° W 03:45:32 10° NNW
Cosmos 2034 Rocket 3.9 03:36:48 10° S 03:43:10 81° E 03:49:32 10° N
Nadezhda 4 Rocket 3.9 03:39:04 10° N 03:45:09 63° E 03:47:45 35° SSE
SL-08 RB Rocket 3.7 03:43:25 27° S 03:45:55 80° WSW 03:50:30 10° NNW
ARGOS 3.6 03:40:56 10° S 03:46:12 61° W 03:51:32 10° NNW
In-Cosmos 22 3.9 03:41:46 10° N 03:47:05 83° E 03:49:36 33° SSE
Okean 2 Rocket 4.0 03:46:38 10° SSW 03:50:59 49° W 03:55:22 10° N
BREEZE-M DEB (TANK) 4.3 03:49:38 10° WSW 03:52:47 49° NNW 04:02:19 10° NE
CZ-2C R/B 2.8 03:49:19 10° N 03:54:52 76° WNW 04:00:27 10° SSW
Cosmos 1048 Rocket 4.2 03:50:24 10° N 03:55:33 53° ENE 03:55:33 53° ENE
USA 186 3.3 03:57:54 35° NW 03:57:54 35° NW 04:00:08 10° NNW
MOS 1 4.2 03:56:46 40° SSE 03:58:59 88° ENE 04:04:43 10° NNW
Cosmos 1844 3.6 03:55:15 10° SSW 04:00:58 85° ESE 04:06:40 10° NNE
DELTA 2 R/B (1) 3.8 04:02:36 10° WNW 04:08:02 56° SSW 04:08:23 55° S
BREEZE-M DEB (TANK) 4.4 03:50:11 10° WNW 04:10:24 83° NNE 04:12:07 56° ESE
Cosmos 1844 Rocket 3.1 04:06:20 10° SSW 04:11:49 62° WNW 04:17:22 10° NNE
Ariane Rocket 3.5 04:11:02 36° SSW 04:12:51 55° W 04:17:50 10° NNW
Cosmos 1634 Rocket 4.1 04:17:30 55° NE 04:17:30 55° NE 04:22:33 10° NNE
ATLAS 2AS CENTAUR R/B 3.0 04:09:03 10° SSW 04:20:14 34° NE 04:24:27 10° NE
OBJECT-B 3.9 04:20:34 11° NNW 04:20:34 11° NNW 04:20:44 10° NNW
Cosmos 2285 Rocket 4.0 04:15:57 10° SSW 04:22:14 79° WNW 04:28:35 10° NNE
SPOT 3 Rocket 4.0 04:26:57 53° N 04:26:57 53° N 04:30:52 10° NNW
CZ-2C R/B 4.0 04:30:28 10° W 04:30:47 12° W 04:30:47 12° W
CENTAUR R/B 3.3 04:25:48 10° NNW 04:33:56 57° NE 04:34:28 56° ENE
ATLAS 3B R/B 4.3 04:34:33 10° N 04:39:00 22° NNE 04:39:00 22° NNE
USA 238 DEB 3.7 04:35:35 10° NNW 04:42:53 87° NE 04:42:53 87° NE
USA 238 3.7 04:35:41 10° NNW 04:42:58 86° NE 04:42:58 86° NE
Cosmos 1092 Rocket 4.1 04:37:47 10° NNW 04:43:35 69° WNW 04:43:35 69° WNW
Cosmos 2026 Rocket 4.4 04:44:40 10° N 04:49:46 60° NNW 04:49:46 60° NNW
Resurs 01 Rocket 4.2 05:04:43 18° NNW 05:04:43 18° NNW 05:05:55 10° NNW
NOSS 3-2 (A) 4.4 05:03:20 10° NW 05:11:00 61° WSW 05:11:00 61° WSW
ATLAS 2AS CENTAUR R/B 4.3 06:00:58 10° WSW 06:08:03 35° NW 06:15:10 10° NNE
Cosmos 1697 Rocket 3.8 11:01:19 35° N 11:01:19 35° N 11:04:39 10° NNE
Cosmos 1980 Rocket 2.5 11:04:19 62° NE 11:04:19 62° NE 11:09:02 10° NNE
Cosmos 2263 Rocket 4.4 11:11:50 10° N 11:16:22 24° ENE 11:20:53 10° ESE
SL-16 R/B 4.0 11:13:21 14° SSE 11:17:08 27° ESE 11:21:48 10° NE
Spot 4 Rocket 4.4 11:18:06 10° N 11:22:08 54° N 11:22:08 54° N
Meteor 1-14 Rocket 4.5 11:18:09 10° N 11:23:43 65° E 11:29:12 10° SSE
Lacrosse 5 3.3 11:27:59 27° NNW 11:27:59 27° NNW 11:31:31 10° NNE
Cosmos 1238 Rocket 4.1 11:22:43 10° N 11:29:19 76° E 11:35:15 10° SSE
Cosmos 921 Rocket 3.4 11:32:00 58° ENE 11:32:00 58° ENE 11:35:45 10° NNE
NOSS 3-3 (A) 3.7 11:32:28 65° SSW 11:33:22 86° ESE 11:39:37 10° NNE
NOSS 3-3 (C) 3.7 11:32:38 66° SSW 11:33:30 85° ESE 11:39:42 10° NNE
Cosmos 44 3.7 11:37:02 47° N 11:37:02 47° N 11:40:34 10° NNE
USA 267 4.4 11:31:56 10° NNE 11:37:20 29° NNW 11:38:59 26° NW
Cosmos 972 4.4 11:38:26 64° NW 11:38:26 64° NW 11:42:58 10° N
Cosmos 2228 Rocket 3.1 11:38:52 77° NNE 11:38:52 77° NNE 11:42:59 10° N
X-37B 3.1 11:42:47 17° NNE 11:42:47 17° NNE 11:44:32 10° NE
Meteor 1-4 Rocket 3.7 11:43:45 36° ESE 11:44:18 39° E 11:47:34 10° NNE
ADEOS II 4.3 11:43:32 10° NNW 11:44:02 11° NW 11:44:02 11° NW
GENESIS II 4.3 11:46:42 77° NE 11:46:42 77° NE 11:50:28 10° NNE
